Weather History for Valdosta Regional, GA

Change the Weather History Date:

Thursday, December 12, 2013

  Actual Average Record
Temperature  
Mean Temperature 50 °F 54 °F  
Max Temperature 64 °F 65 °F 80 °F (2007)
Min Temperature 36 °F 42 °F 29 °F (2014)
Degree Days  
Heating Degree Days 15 12  
Month to date heating degree days 34 129  
Since 1 July heating degree days 200 360  
Moisture  
Dew Point 33 °F    
Average Humidity 54    
Maximum Humidity 86    
Minimum Humidity 22    
Precipitation  
Precipitation 0.00 in 0.13 in 2.11 in (2011)
Month to date precipitation 0.94 1.34  
Year to date precipitation 42.28 48.77  
Sea Level Pressure  
Sea Level Pressure 30.38 in    
Wind  
Wind Speed 5 mph (North)    
Max Wind Speed 15 mph    
Max Gust Speed 21 mph    
Visibility 10 miles    
Events      
T = Trace of Precipitation, MM = Missing Value Source: NWS Daily Summary

Daily Weather History Graph

Daily Weather History Graph

Search for Another Location

Airport:

Trip Planner

Search our weather history database for the weather conditions in past years. The results will help you decide how hot, cold, wet, or windy it might be!

Date:

Astronomy

Dec. 12, 2013 Rise Set
Actual Time 7:21 AM EST 5:32 PM EST
Civil Twilight 6:54 AM EST 5:59 PM EST
Nautical Twilight 6:24 AM EST 6:29 PM EST
Astronomical Twilight 5:55 AM EST 6:58 PM EST
Moon 2:26 PM EST (12/12) 2:57 AM EST (12/12)
Length of Visible Light 11h 04m
Length of Day
10h 11m
Waxing Gibbous, 80% of the Moon is Illuminated
Dec 12
Waxing Gibbous
Dec 17
Full
Dec 25
Last Quarter
Jan 1
New
Jan 7
First Quarter

Hourly Weather History & Observations

Time (EST) Temp. Windchill Dew Point Humidity Pressure Visibility Wind Dir Wind Speed Gust Speed Precip Events Conditions
12:53 AM 54.0 °F - 46.9 °F 77% 30.33 in 10.0 mi North 3.5 mph - N/A   Clear
1:53 AM 52.0 °F - 45.0 °F 77% 30.33 in 10.0 mi Calm Calm - N/A   Partly Cloudy
2:53 AM 48.9 °F - 45.0 °F 86% 30.33 in 10.0 mi Calm Calm - N/A   Clear
3:53 AM 50.0 °F - 43.0 °F 77% 30.32 in 10.0 mi NNE 4.6 mph - N/A   Clear
4:53 AM 48.0 °F - 41.0 °F 77% 30.34 in 10.0 mi North 8.1 mph - N/A   Clear
5:53 AM 46.9 °F - 39.0 °F 74% 30.37 in 10.0 mi Calm Calm - N/A   Clear
6:53 AM 46.0 °F 42.5 °F 37.0 °F 71% 30.40 in 10.0 mi North 6.9 mph - N/A   Clear
7:53 AM 46.9 °F - 36.0 °F 66% 30.42 in 10.0 mi North 5.8 mph - N/A   Clear
8:53 AM 51.1 °F - 33.1 °F 50% 30.43 in 10.0 mi North 9.2 mph - N/A   Clear
9:53 AM 54.0 °F - 30.9 °F 41% 30.44 in 10.0 mi North 9.2 mph - N/A   Clear
10:53 AM 57.0 °F - 28.9 °F 34% 30.45 in 10.0 mi North 11.5 mph - N/A   Clear
11:53 AM 59.0 °F - 28.0 °F 31% 30.42 in 10.0 mi North 13.8 mph - N/A   Clear
12:53 PM 62.1 °F - 24.1 °F 23% 30.38 in 10.0 mi Variable 4.6 mph - N/A   Clear
1:53 PM 64.0 °F - 24.1 °F 22% 30.35 in 10.0 mi Variable 5.8 mph - N/A   Clear
2:53 PM 64.0 °F - 24.1 °F 22% 30.34 in 10.0 mi North 11.5 mph 19.6 mph N/A   Clear
3:53 PM 63.0 °F - 25.0 °F 24% 30.34 in 10.0 mi Variable 4.6 mph - N/A   Clear
4:53 PM 57.9 °F - 24.1 °F 27% 30.35 in 10.0 mi North 8.1 mph - N/A   Clear
5:53 PM 48.9 °F - 30.9 °F 50% 30.36 in 10.0 mi Calm Calm - N/A   Clear
6:53 PM 45.0 °F - 30.9 °F 58% 30.39 in 10.0 mi Calm Calm - N/A   Clear
7:53 PM 42.1 °F - 30.9 °F 65% 30.40 in 10.0 mi Calm Calm - N/A   Clear
8:53 PM 39.9 °F - 30.0 °F 68% 30.40 in 10.0 mi Calm Calm - N/A   Clear
9:53 PM 39.0 °F - 28.9 °F 67% 30.40 in 10.0 mi Calm Calm - N/A   Clear
10:53 PM 37.0 °F - 30.0 °F 76% 30.39 in 10.0 mi Calm Calm - N/A   Clear
11:53 PM 36.0 °F - 30.0 °F 79% 30.39 in 10.0 mi Calm Calm - N/A   Clear